Home   Weather   Kumanovo   Past weeks

Flag for Macedonia, Republic of Past Weather in Kumanovo, Macedonia, Republic of — Yesterday and Last 2 Weeks

Now
46 °F

Sunny.


Feels Like: 46 °F
Forecast: 22 / 38 °F
Wind: No wind

Location: Skopje-Petrovec

Current Time: Dec 6, 2016 at 3:24:58 pm

Latest Report: Dec 6, 2016 at 3:00 pm


Visibility: 10 mi

Pressure: 30.33 "Hg

Humidity: 62%

Dew Point: 34 °F

Location of KumanovoLocation

Past Weather in Kumanovo — Graph

°F

Kumanovo Temperature Yesterday

Maximum temperature yesterday: 41 °F (at 1:30 pm)
Minimum temperature yesterday: 23 °F (at 3:00 am)
Average temperature yesterday: 32 °F

High & Low Weather Summary for the Past Weeks

 TemperatureHumidityPressure
High52 °F (Nov 21, 2:00 pm)100% (Nov 21, 9:30 pm)30.54 "Hg (Nov 21, 9:30 pm)
Low19 °F (Dec 1, 2:30 am)37% (Dec 3, 1:00 pm)29.83 "Hg (Dec 2, 12:00 pm)
Average37 °F79%30.23 "Hg
* Reported Nov 21 2:00 pm — Dec 6 2:00 pm, Kumanovo, Weather by CustomWeather, © 2016

Note: Actual official high and low records may vary slightly from our data, if they occured in-between our weather recording intervals... More about our weather records

Advertising

Kumanovo Weather History for the Previous 24 Hours

Scroll right to see more
 ConditionsComfort  
Time TempWeatherWind HumidityBarometerVisibility
2:00 pm
Tue, Dec 6
46 °FPassing clouds.No wind62%30.33 "HgN/A
1:30 pm46 °FPassing clouds.No wind57%30.33 "HgN/A
1:00 pm46 °FPassing clouds.No wind57%30.33 "HgN/A
12:30 pm45 °FScattered clouds.No wind61%30.36 "HgN/A
12:00 pm45 °FScattered clouds.No wind61%30.36 "HgN/A
11:30 am45 °FSunny.No wind61%30.36 "Hg10 mi
11:00 am41 °FClear.No wind70%30.36 "Hg5 mi
10:00 am36 °FClear.No wind81%30.39 "Hg4 mi
9:30 am36 °FClear.No wind81%30.42 "Hg4 mi
9:00 am32 °FIce fog.No wind87%30.42 "Hg3 mi
8:30 am30 °FIce fog.No wind93%30.42 "Hg3 mi
8:00 am27 °FIce fog.2 mph93%30.42 "Hg2 mi
7:30 am27 °FIce fog.2 mph93%30.42 "Hg2 mi
7:00 am25 °FIce fog.2 mph93%30.42 "Hg2 mi
6:30 am27 °FIce fog.1 mph93%30.42 "Hg3 mi
6:00 am27 °FPassing clouds.2 mph93%30.42 "Hg4 mi
5:30 am28 °FPassing clouds.No wind86%30.42 "Hg5 mi
5:00 am28 °FPassing clouds.No wind93%30.42 "Hg5 mi
4:30 am28 °FPassing clouds.No wind93%30.42 "Hg4 mi
4:00 am30 °FPassing clouds.No wind86%30.42 "Hg5 mi
3:30 am30 °FPartly cloudy.5 mph86%30.42 "Hg4 mi
3:00 am28 °FPartly cloudy.No wind93%30.42 "Hg5 mi
2:30 am28 °FPassing clouds.No wind93%30.45 "HgN/A
2:00 am28 °FPassing clouds.2 mph86%30.45 "Hg4 mi
1:30 am27 °FPassing clouds.1 mph93%30.45 "Hg4 mi
1:00 am27 °FClear.1 mph86%30.45 "Hg4 mi
12:30 am27 °FClear.1 mph86%30.45 "Hg4 mi
12:00 am27 °FClear.3 mph86%30.45 "Hg4 mi
11:30 pm
Mon, Dec 5
27 °FPassing clouds.No wind93%30.48 "Hg4 mi
11:00 pm27 °FPassing clouds.No wind93%30.48 "Hg4 mi
10:30 pm28 °FPassing clouds.2 mph86%30.48 "Hg4 mi
10:00 pm30 °FPassing clouds.3 mph86%30.48 "Hg4 mi
9:30 pm30 °FPassing clouds.No wind86%30.48 "Hg4 mi
9:00 pm32 °FPassing clouds.No wind80%30.48 "Hg4 mi
8:30 pm32 °FPassing clouds.1 mph87%30.48 "Hg4 mi
8:00 pm32 °FPassing clouds.1 mph80%30.48 "Hg4 mi
7:30 pm32 °FPassing clouds.1 mph80%30.48 "Hg4 mi
7:00 pm32 °FPassing clouds.1 mph80%30.48 "Hg5 mi
6:30 pm34 °FPassing clouds.3 mph75%30.48 "Hg4 mi
6:00 pm34 °FPassing clouds.1 mph75%30.48 "Hg5 mi
5:30 pm36 °FPassing clouds.No wind75%30.48 "HgN/A
5:00 pm37 °FPassing clouds.1 mph70%30.48 "HgN/A
4:30 pm39 °FPassing clouds.2 mph65%30.48 "HgN/A
4:00 pm39 °FPartly sunny.2 mph65%30.48 "HgN/A
3:30 pm41 °FPartly sunny.1 mph61%30.48 "HgN/A
3:00 pm41 °FPartly sunny.1 mph61%30.48 "HgN/A
Weather by CustomWeather, © 2016

See weather overviewHow to use our weather pages